CW1084 Weather Reports


time (UTC)temp
C
wind
direction
speed
KPH
gust
KPH
rain 1hr
cm
rain 24hr
cm
rain mn
cm
humidity
%
barometer
mb
20260505063115 17 246 1.6 14.5 0.00 0.00 0.00 55 1010.3
20260505062638 17 236 1.6 14.5 0.00 0.00 0.00 55 1010.3
20260505061842 17 146 1.6 12.9 0.00 0.00 0.00 55 1010.2
20260505061226 17 239 1.6 16.1 0.00 0.00 0.00 55 1010.2
20260505061201 17 248 1.6 16.1 0.00 0.00 0.00 55 1010.3
20260505060225 17 250 1.6 14.5 0.00 0.00 0.00 55 1010.2
20260505055555 17 213 1.6 19.3 0.00 0.00 0.00 55 1010.2
20260505055545 17 257 1.6 14.5 0.00 0.00 0.00 55 1010.2
20260505054345 17 197 0.0 12.9 0.00 0.00 0.00 54 1010.4
20260505054336 17 220 1.6 19.3 0.00 0.00 0.00 55 1010.3
20260505053518 17 184 1.6 12.9 0.00 0.00 0.00 54 1010.3
20260505053003 17 169 1.6 17.7 0.00 0.00 0.00 54 1010.2
20260505052236 17 155 0.0 0.0 0.00 0.00 0.00 54 1010.2
20260505052142 17 169 0.0 8.0 0.00 0.00 0.00 54 1010.2
20260505050839 17 194 0.0 6.4 0.00 0.00 0.00 53 1010.2
20260505050830 17 155 0.0 9.7 0.00 0.00 0.00 54 1010.1
20260505050213 17 172 0.0 4.8 0.00 0.00 0.00 53 1010.3
20260505041756 17 180 0.0 8.0 0.00 0.00 0.00 52 1010.2
20260505041113 17 180 0.0 6.4 0.00 0.00 0.00 52 1010.2
20260505040617 17 177 0.0 3.2 0.00 0.00 0.00 52 1010.1
20260505040000 17 179 0.0 9.7 0.00 0.00 0.00 52 1010.1
20260505035932 17 179 0.0 9.7 0.00 0.00 0.00 52 1010.1
20260505034944 17 178 0.0 9.7 0.00 0.00 0.00 52 1010.0
20260505034322 17 176 0.0 6.4 0.00 0.00 0.00 52 1010.1
20260505034308 17 177 0.0 0.0 0.00 0.00 0.00 52 1010.0
20260505033058 17 175 0.0 3.2 0.00 0.00 0.00 52 1010.1
20260505032459 17 175 0.0 8.0 0.00 0.00 0.00 52 1010.1
20260505032141 17 173 0.0 4.8 0.00 0.00 0.00 52 1010.1
20260505031527 17 173 0.0 9.7 0.00 0.00 0.00 52 1010.1
20260505030810 17 173 0.0 9.7 0.00 0.00 0.00 52 1010.1
20260505030134 16 170 0.0 9.7 0.00 0.00 0.00 53 1010.1
20260505025534 16 170 0.0 9.7 0.00 0.00 0.00 53 1010.1
20260505024938 16 169 0.0 4.8 0.00 0.00 0.00 53 1010.2
20260505024842 16 169 0.0 3.2 0.00 0.00 0.00 53 1010.1
20260505024233 16 169 0.0 0.0 0.00 0.00 0.00 53 1010.2
20260505023329 16 169 0.0 1.6 0.00 0.00 0.00 53 1010.1
20260505022638 16 169 0.0 1.6 0.00 0.00 0.00 53 1010.1
20260505022149 16 169 0.0 0.0 0.00 0.00 0.00 54 1009.9
20260505022047 16 169 0.0 0.0 0.00 0.00 0.00 53 1010.0
20260505021205 17 169 0.0 0.0 0.00 0.00 0.00 54 1010.0
20260505020505 17 169 0.0 0.0 0.00 0.00 0.00 54 1009.9
20260505015816 17 169 0.0 0.0 0.00 0.00 0.00 55 1009.9
20260505015531 17 169 0.0 0.0 0.00 0.00 0.00 56 1009.9
20260505014704 17 169 0.0 0.0 0.00 0.00 0.00 59 1010.0
20260505014700 17 169 0.0 1.6 0.00 0.00 0.00 60 1010.0
20260505014656 17 169 0.0 1.6 0.00 0.00 0.00 60 1010.0
20260505014607 17 169 0.0 0.0 0.00 0.00 0.00 58 1010.0
20260505012536 17 169 0.0 1.6 0.00 0.00 0.00 57 1009.9
20260505011659 17 169 0.0 0.0 0.00 0.00 0.00 55 1009.9
20260505011634 18 169 0.0 0.0 0.00 0.00 0.00 56 1009.9
20260505010451 18 169 0.0 0.0 0.00 0.00 0.00 56 1009.9
20260505010242 18 169 0.0 0.0 0.00 0.00 0.00 55 1009.7
20260505005527 18 169 0.0 0.0 0.00 0.00 0.00 55 1009.6
20260505005027 18 169 0.0 0.0 0.00 0.00 0.00 54 1009.5
20260505004954 18 169 0.0 0.0 0.00 0.00 0.00 54 1009.6
20260505004415 18 169 0.0 0.0 0.00 0.00 0.00 54 1009.5
20260505003442 18 169 0.0 0.0 0.00 0.00 0.00 54 1009.5
20260505002721 19 169 0.0 0.0 0.00 0.00 0.00 53 1009.5
20260505001832 19 169 0.0 0.0 0.00 0.00 0.00 53 1009.6
20260505001256 19 169 0.0 6.4 0.00 0.00 0.00 53 1009.5
20260505000729 20 169 0.0 6.4 0.00 0.00 0.00 52 1009.5
20260505000417 20 169 0.0 0.0 0.00 0.00 0.00 51 1009.4
20260504235639 20 169 0.0 0.0 0.00 0.00 0.00 50 1009.3
20260504235054 20 169 0.0 0.0 0.00 0.00 0.00 49 1009.3
20260504234528 21 169 0.0 0.0 0.00 0.00 0.00 49 1009.3
20260504234031 21 169 0.0 0.0 0.00 0.00 0.00 48 1009.3
20260504233530 21 169 0.0 0.0 0.00 0.00 0.00 47 1009.3
20260504233157 21 169 0.0 0.0 0.00 0.00 0.00 47 1009.3
20260504232320 21 169 0.0 0.0 0.00 0.00 0.00 45 1009.2
20260504231746 21 169 0.0 0.0 0.00 0.00 0.00 45 1009.1
20260504231241 21 169 0.0 3.2 0.00 0.00 0.00 44 1009.1
20260504230653 21 169 0.0 3.2 0.00 0.00 0.00 43 1009.1
20260504230124 21 169 0.0 0.0 0.00 0.00 0.00 42 1009.1
20260504225543 21 169 0.0 3.2 0.00 0.00 0.00 42 1009.1
20260504225004 21 169 0.0 11.3 0.00 0.00 0.00 41 1009.2
20260504224428 21 169 1.6 11.3 0.00 0.00 0.00 42 1009.3
20260504223901 21 171 0.0 4.8 0.00 0.00 0.00 43 1009.2
20260504223334 21 171 0.0 0.0 0.00 0.00 0.00 44 1009.2
20260504223235 20 171 0.0 8.0 0.00 0.00 0.00 48 1009.3
20260504222229 20 165 0.0 1.6 0.00 0.00 0.00 53 1009.3
20260504221630 20 165 0.0 1.6 0.00 0.00 0.00 54 1009.3
20260504221046 20 165 0.0 1.6 0.00 0.00 0.00 54 1009.4
20260504220507 20 165 0.0 8.0 0.00 0.00 0.00 54 1009.4
20260504215934 20 165 0.0 8.0 0.00 0.00 0.00 55 1009.5
20260504215624 20 166 1.6 11.3 0.00 0.00 0.00 55 1009.4
20260504214838 20 166 1.6 11.3 0.00 0.00 0.00 55 1009.5
20260504214443 20 159 1.6 11.3 0.00 0.00 0.00 55 1009.5
20260504213723 20 137 1.6 11.3 0.00 0.00 0.00 56 1009.5
20260504213418 20 102 1.6 17.7 0.00 0.00 0.00 56 1009.5
20260504212820 20 142 3.2 17.7 0.00 0.00 0.00 56 1009.6
20260504212412 21 196 1.6 16.1 0.00 0.00 0.00 55 1009.7
20260504211424 21 130 1.6 12.9 0.00 0.00 0.00 55 1009.7
20260504210910 21 137 1.6 12.9 0.00 0.00 0.00 55 1009.7
20260504210333 21 140 3.2 14.5 0.00 0.00 0.00 54 1009.7
20260504205749 21 223 3.2 8.0 0.00 0.00 0.00 55 1009.6
20260504205202 21 143 3.2 16.1 0.00 0.00 0.00 53 1009.7
20260504204628 21 194 1.6 14.5 0.00 0.00 0.00 52 1009.6
20260504204052 21 207 1.6 12.9 0.00 0.00 0.00 50 1009.6
20260504203523 21 208 1.6 12.9 0.00 0.00 0.00 50 1009.7
20260504202957 21 169 3.2 17.7 0.00 0.00 0.00 49 1009.7
20260504202429 21 178 3.2 17.7 0.00 0.00 0.00 49 1009.8
20260504201851 21 150 3.2 14.5 0.00 0.00 0.00 47 1009.8
20260504201303 21 153 3.2 14.5 0.00 0.00 0.00 47 1009.9
20260504200727 21 146 3.2 19.3 0.00 0.00 0.00 47 1010.0
20260504200419 21 205 3.2 19.3 0.00 0.00 0.00 47 1010.1
20260504195728 21 132 4.8 20.9 0.00 0.00 0.00 47 1010.2
20260504195032 21 155 4.8 20.9 0.00 0.00 0.00 47 1010.2
20260504194743 21 137 4.8 19.3 0.00 0.00 0.00 47 1010.2
20260504193935 21 123 3.2 19.3 0.00 0.00 0.00 46 1010.4
20260504193407 21 130 1.6 14.5 0.00 0.00 0.00 47 1010.6
20260504192820 21 144 3.2 16.1 0.00 0.00 0.00 46 1010.6
20260504192250 21 176 3.2 16.1 0.00 0.00 0.00 46 1010.7
20260504191712 21 155 3.2 14.5 0.00 0.00 0.00 45 1010.8
20260504191112 21 153 1.6 8.0 0.00 0.00 0.00 46 1010.8
20260504190535 21 109 3.2 16.1 0.00 0.00 0.00 46 1010.7
20260504190030 21 128 1.6 17.7 0.00 0.00 0.00 48 1010.7
20260504185620 21 229 1.6 17.7 0.00 0.00 0.00 47 1010.9
20260504185217 21 165 3.2 19.3 0.00 0.00 0.00 48 1011.0
20260504184952 21 165 3.2 19.3 0.00 0.00 0.00 48 1011.0
20260504184332 20 166 3.2 19.3 0.00 0.00 0.00 47 1011.1
20260504183632 21 142 3.2 14.5 0.00 0.00 0.00 49 1011.1
20260504183049 21 161 3.2 14.5 0.00 0.00 0.00 47 1011.1
20260504182521 21 137 3.2 14.5 0.00 0.00 0.00 48 1011.2
20260504181947 21 152 3.2 16.1 0.00 0.00 0.00 49 1011.2
20260504181341 22 143 3.2 11.3 0.00 0.00 0.00 49 1011.3
20260504180809 22 135 3.2 20.9 0.00 0.00 0.00 47 1011.4
20260504180242 22 175 3.2 12.9 0.00 0.00 0.00 44 1011.4
20260504175739 23 154 1.6 11.3 0.00 0.00 0.00 40 1011.3
20260504175128 23 178 1.6 11.3 0.00 0.00 0.00 37 1011.3
20260504174631 23 223 1.6 11.3 0.00 0.00 0.00 32 1011.3
20260504174443 23 178 1.6 12.9 0.00 0.00 0.00 33 1011.4
20260504173515 22 236 1.6 12.9 0.00 0.00 0.00 33 1011.6
20260504173450 23 258 3.2 11.3 0.00 0.00 0.00 33 1011.5
20260504172243 22 228 1.6 9.7 0.00 0.00 0.00 32 1011.8
20260504171703 22 223 1.6 8.0 0.00 0.00 0.00 33 1011.8
20260504171155 22 207 1.6 12.9 0.00 0.00 0.00 35 1011.9
20260504170537 22 227 1.6 9.7 0.00 0.00 0.00 34 1011.9
20260504160328 21 223 0.0 6.4 0.00 0.00 0.00 35 1012.6
20260504150808 19 225 0.0 4.8 0.00 0.00 0.00 40 1013.0
20260504150304 18 225 0.0 4.8 0.00 0.00 0.00 41 1013.0
20260504141128 16 227 3.2 17.7 0.00 0.00 0.00 46 1013.0
20260504140650 16 236 3.2 14.5 0.00 0.00 0.00 46 1013.0
20260504140620 16 194 3.2 14.5 0.00 0.00 0.00 46 1013.0
20260504130328 14 246 1.6 12.9 0.00 0.00 0.00 47 1013.6
20260504120221 13 265 1.6 8.0 0.00 0.00 0.00 50 1013.8
20260504110225 11 207 0.0 0.0 0.00 0.00 0.00 52 1014.2
20260504100403 11 180 0.0 0.0 0.00 0.00 0.00 51 1014.2
20260504100210 11 180 0.0 0.0 0.00 0.00 0.00 51 1014.3
20260504081508 12 188 0.0 9.7 0.00 0.00 0.00 51 1014.5
20260504080955 12 181 0.0 0.0 0.00 0.00 0.00 51 1014.4
20260504080606 12 181 0.0 3.2 0.00 0.00 0.00 51 1014.5
20260504070309 11 164 0.0 8.0 0.00 0.00 0.00 50 1014.8